Location: Waldport
(44.4270°N, 124.0680°W)
Time: 19:13:44
(UTC-07:00)

Meteor 1-26 Rocket - Visible Passes

Search period start: 07 July 2015 00:00
Search period end: 17 July 2015 00:00
Orbit: 826 x 909 km, 81.3° (Epoch: 07 July)

Date Brightness Start Highest point End Pass type
(mag) Time Alt. Az. Time Alt. Az. Time Alt. Az.
07 Jul 4.5 22:52:26 10° NNW 22:58:18 70° W 23:02:55 17° S visible
08 Jul 4.6 22:45:34 10° NNW 22:51:26 69° W 22:56:23 15° S visible
09 Jul 4.6 22:38:42 10° NNW 22:44:33 68° W 22:49:52 13° S visible
10 Jul 4.7 22:31:49 10° NNW 22:37:41 67° W 22:43:23 11° S visible
11 Jul 4.7 22:24:56 10° NNW 22:30:49 65° W 22:36:40 10° S visible
12 Jul 4.7 22:18:05 10° NNW 22:23:57 64° W 22:29:48 10° S visible
13 Jul 4.8 22:11:12 10° NNW 22:17:04 63° W 22:22:55 10° S visible
14 Jul 4.8 22:04:20 10° NNW 22:10:12 62° W 22:16:02 10° S visible
15 Jul 4.9 21:57:28 10° NNW 22:03:19 61° W 22:09:08 10° S visible
16 Jul 4.9 21:50:36 10° NNW 21:56:27 60° W 22:02:15 10° S visible
